PBO Station Position Time Series. Reference Frame : NAM14
Format Version,1.1.1
4-character ID,PALX
Station name,El_Alamo__MX2010
Begin Date, 2010-09-03
End Date, 2023-04-16
Release Date, 2023-06-22
Reference position, 31.5591173980 North Latitude, -116.0637865732 East Longitude, 1545.47316 meters elevation,
Date, North (mm), East (mm), Vertical (mm), North Std. Deviation (mm), East Std. Deviation (mm),              Vertical Std. Deviation (mm), Quality,
2010-09-03,0.00, 0.00, 0.00, 1.78, 1.62, 7.22, repro,
2010-09-04,-0.00, -0.04, 3.86, 1.83, 1.66, 7.33, repro,
2010-09-05,0.71, 0.85, 7.33, 1.80, 1.64, 7.29, repro,
2010-09-06,-0.33, 0.17, 3.55, 1.80, 1.64, 7.29, repro,
2010-09-07,0.34, 0.37, 5.36, 1.78, 1.62, 7.17, repro,
2010-09-08,0.19, 0.76, 4.53, 1.78, 1.62, 7.21, repro,
2010-09-09,1.62, 0.88, -3.48, 1.79, 1.63, 7.23, repro,
2010-09-10,1.23, 0.76, 2.80, 1.79, 1.64, 7.23, repro,
2010-09-11,1.39, -0.55, 2.02, 1.83, 1.69, 7.33, repro,
2010-09-12,0.81, 1.33, 0.57, 1.79, 1.63, 7.20, repro,
2010-09-13,0.95, 1.15, -0.40, 1.78, 1.63, 7.23, repro,
2010-09-14,0.77, -0.32, 1.97, 1.79, 1.63, 7.28, repro,
2010-09-15,0.22, -0.30, 3.30, 1.79, 1.64, 7.27, repro,
2010-09-16,0.35, 0.02, 2.86, 1.79, 1.63, 7.25, repro,
2010-09-17,0.22, -0.11, 3.23, 1.79, 1.63, 7.24, repro,
2010-09-18,0.65, -0.30, 3.92, 1.78, 1.62, 7.22, repro,
2010-09-19,0.53, -0.56, 0.26, 1.78, 1.62, 7.26, repro,
2010-09-20,1.12, 0.12, 8.73, 1.79, 1.63, 7.24, repro,
2010-09-21,-0.03, -0.88, 12.86, 1.79, 1.67, 7.41, repro,
2010-09-22,0.40, -0.27, 6.39, 1.81, 1.68, 7.45, repro,
2010-09-23,0.06, -1.52, 5.90, 1.83, 1.62, 7.34, repro,
2010-09-24,0.33, -1.46, -1.47, 1.78, 1.62, 7.18, repro,
2010-09-25,0.06, -0.23, -3.70, 1.78, 1.62, 7.19, repro,
2010-09-26,1.55, -0.58, -0.29, 1.78, 1.63, 7.23, repro,
2010-09-27,0.21, -0.48, -3.78, 1.85, 1.69, 7.33, repro,
2010-09-28,1.14, -2.06, 11.38, 1.86, 1.70, 7.43, repro,
2010-09-29,-0.13, -1.24, 10.47, 1.88, 1.72, 7.58, repro,
2010-09-30,1.09, -0.23, 5.97, 1.87, 1.73, 7.57, repro,
2010-10-01,0.77, -0.69, 10.17, 1.83, 1.65, 7.34, repro,
2010-10-02,-0.48, -2.55, 1.01, 1.85, 1.71, 7.65, repro,
2010-10-03,-1.20, 0.39, 1.63, 1.83, 1.66, 7.37, repro,
2010-10-04,-0.24, -0.77, 3.56, 1.87, 1.66, 7.45, repro,
2010-10-05,0.58, 0.00, -0.64, 1.80, 1.64, 7.30, repro,
2010-10-06,1.05, 0.91, -4.78, 1.78, 1.62, 7.20, repro,
2010-10-07,2.58, -0.58, -7.20, 1.80, 1.63, 7.26, repro,
2010-10-08,0.05, -0.11, 1.96, 1.89, 1.69, 7.53, repro,
2010-10-09,0.60, 0.24, 0.28, 1.85, 1.64, 7.40, repro,
2010-10-10,-1.05, -0.88, 3.39, 1.87, 1.69, 7.51, repro,
2010-10-11,0.66, 0.58, 3.08, 1.97, 1.76, 7.93, repro,
2010-10-12,0.84, -0.24, -4.29, 1.80, 1.63, 7.25, repro,
2010-10-13,0.78, -1.61, -4.01, 1.87, 1.68, 7.43, repro,
2010-10-14,0.36, 0.94, 1.57, 1.81, 1.66, 7.41, repro,
2010-10-15,-0.86, 1.26, 2.03, 1.82, 1.66, 7.45, repro,
2010-10-16,-0.07, 0.02, 10.36, 1.82, 1.64, 7.31, repro,
2010-10-17,0.25, 0.14, 0.80, 1.88, 1.71, 7.43, repro,
2010-10-18,0.48, -1.55, -0.23, 1.87, 1.68, 7.39, repro,
2010-10-19,2.46, 0.31, -1.01, 1.83, 1.67, 7.36, repro,
2010-10-20,1.23, -0.26, -4.74, 1.84, 1.69, 7.42, repro,
2010-10-21,2.96, -0.34, -1.66, 1.85, 1.66, 7.36, repro,
2010-10-22,1.73, -1.31, 3.36, 1.82, 1.64, 7.34, repro,
2010-10-23,0.66, 0.90, -1.93, 1.87, 1.67, 7.46, repro,
2010-10-24,1.90, -0.38, -0.62, 1.85, 1.69, 7.55, repro,
2010-10-25,1.05, -0.57, 3.17, 1.86, 1.67, 7.40, repro,
2010-10-26,1.05, 0.15, 2.57, 1.79, 1.62, 7.22, repro,
2010-10-27,1.09, -1.22, 2.37, 1.81, 1.63, 7.31, repro,
2010-10-28,1.34, 0.12, -3.39, 1.80, 1.62, 7.30, repro,
2010-10-29,1.56, 1.25, -1.50, 1.79, 1.61, 7.18, repro,
2010-10-30,-0.19, -1.66, -0.46, 1.78, 1.60, 7.10, repro,
2010-10-31,0.17, 0.14, -2.82, 1.84, 1.71, 7.41, repro,
2010-11-01,0.44, -0.66, -2.51, 1.89, 1.75, 7.56, repro,
2010-11-02,0.92, -0.42, -3.94, 1.83, 1.64, 7.28, repro,
2010-11-03,0.06, -0.04, -3.91, 1.80, 1.63, 7.28, repro,
2010-11-04,0.03, -1.17, -7.26, 1.79, 1.60, 7.14, repro,
2010-11-05,0.88, -0.35, 0.11, 1.86, 1.67, 7.37, repro,
2010-11-06,1.82, 0.01, -0.75, 1.82, 1.64, 7.29, repro,
2010-11-07,0.82, -0.92, 1.71, 1.83, 1.64, 7.32, repro,
2010-11-08,0.13, -0.25, 4.87, 1.80, 1.62, 7.24, repro,
2010-11-09,0.16, -1.28, 8.53, 1.80, 1.62, 7.20, repro,
2010-11-10,1.25, -1.08, 3.04, 1.82, 1.64, 7.26, repro,
2010-11-11,0.10, -1.36, -1.29, 1.83, 1.63, 7.25, repro,
2010-11-12,-0.65, -1.48, -4.23, 1.79, 1.59, 7.18, repro,
2010-11-13,0.58, -0.72, -4.63, 1.91, 1.70, 7.79, repro,
2010-11-14,0.80, -0.69, 1.72, 1.86, 1.68, 7.50, repro,
2010-11-15,-0.63, 0.61, 4.51, 1.81, 1.64, 7.37, repro,
2010-11-16,-0.20, 0.30, -0.92, 1.89, 1.67, 7.63, repro,
2010-11-17,-0.34, 0.49, -0.36, 1.93, 1.70, 7.74, repro,
2010-11-18,0.02, 0.47, 0.03, 1.86, 1.65, 7.56, repro,
2010-11-19,-0.41, -0.63, 2.26, 1.89, 1.66, 7.63, repro,
2010-11-20,-0.59, -0.32, 1.25, 1.83, 1.63, 7.37, repro,
2010-11-21,-1.26, 0.60, -0.94, 1.90, 1.71, 7.59, repro,
2010-11-22,1.41, -1.42, 1.25, 1.89, 1.71, 7.56, repro,
2010-11-23,-0.51, -0.11, -1.14, 1.81, 1.62, 7.36, repro,
2010-11-24,-0.49, -0.02, 2.68, 1.82, 1.63, 7.40, repro,
2010-11-25,-0.32, -0.84, -1.38, 1.82, 1.62, 7.35, repro,
2010-11-26,1.29, -1.06, -2.07, 1.90, 1.65, 7.66, repro,
2010-11-27,0.61, -0.23, 0.41, 1.86, 1.64, 7.56, repro,
2010-11-28,0.64, 0.60, 1.27, 1.93, 1.66, 7.80, repro,
2010-11-29,-0.36, -0.33, -1.70, 1.85, 1.64, 7.59, repro,
2010-11-30,0.37, -1.30, -3.33, 1.83, 1.63, 7.44, repro,
2010-12-01,0.29, -0.22, -3.93, 1.84, 1.64, 7.50, repro,
2010-12-02,0.83, -0.51, -7.13, 1.83, 1.62, 7.42, repro,
2010-12-03,0.48, 0.94, -3.14, 1.85, 1.63, 7.55, repro,
2010-12-04,-0.46, 0.18, -1.34, 1.87, 1.64, 7.64, repro,
2010-12-05,0.32, 0.41, -3.95, 1.95, 1.66, 7.91, repro,
2010-12-06,-0.30, -0.58, 0.22, 1.87, 1.64, 7.58, repro,
2010-12-07,-0.02, -0.61, -4.75, 1.85, 1.67, 7.57, repro,
2010-12-08,1.30, 0.20, -5.87, 1.85, 1.63, 7.52, repro,
2010-12-09,0.61, 0.07, -7.07, 1.84, 1.64, 7.47, repro,
2010-12-10,-0.22, -0.20, -1.61, 1.88, 1.66, 7.69, repro,
2010-12-11,-0.08, -0.82, -0.88, 1.84, 1.63, 7.39, repro,
2010-12-12,-0.64, -1.57, -2.67, 1.86, 1.60, 7.38, repro,
2010-12-13,0.46, -0.77, 0.23, 1.92, 1.61, 7.55, repro,
2010-12-14,1.53, -0.65, -0.92, 1.93, 1.67, 7.72, repro,
2010-12-15,-0.35, -0.23, 7.99, 1.90, 1.66, 7.62, repro,
2010-12-16,0.31, -0.76, 1.13, 1.84, 1.63, 7.41, repro,
2010-12-17,-0.84, -1.07, -3.15, 1.87, 1.63, 7.38, repro,
2010-12-18,-0.86, -0.45, -0.86, 1.82, 1.60, 7.21, repro,
2010-12-19,0.48, 0.35, -3.23, 1.83, 1.62, 7.37, repro,
2010-12-20,-0.90, -2.44, -2.69, 1.90, 1.65, 7.57, repro,
2010-12-21,-1.48, -0.74, -4.71, 1.91, 1.67, 7.68, repro,
2010-12-22,0.32, 0.81, -8.88, 1.92, 1.68, 7.72, repro,
2010-12-23,-0.14, -0.66, -4.53, 1.95, 1.73, 7.83, repro,
2010-12-24,0.80, -0.29, -3.82, 1.84, 1.62, 7.42, repro,
2010-12-25,0.30, 0.42, -5.76, 1.81, 1.58, 7.23, repro,
2010-12-26,0.50, -0.35, -4.91, 1.81, 1.58, 7.26, repro,
2010-12-27,1.65, -0.34, -5.31, 1.81, 1.58, 7.25, repro,
2010-12-28,1.66, 0.11, -3.33, 1.86, 1.65, 7.46, repro,
2010-12-29,0.76, 0.21, 1.23, 1.89, 1.68, 7.57, repro,
2010-12-30,-1.00, 2.00, -1.52, 1.86, 1.64, 7.47, repro,
2010-12-31,-0.14, 0.38, -0.32, 1.83, 1.62, 7.40, repro,
2011-01-01,0.35, 0.23, -0.49, 1.84, 1.62, 7.41, repro,
2011-01-02,0.85, 0.88, -5.52, 1.94, 1.72, 7.83, repro,
2011-01-03,1.44, 0.83, -8.23, 1.91, 1.66, 7.65, repro,
2011-01-04,1.28, 0.23, -6.10, 1.90, 1.66, 7.57, repro,
2011-01-05,1.52, 0.02, -7.58, 1.85, 1.64, 7.47, repro,
2011-01-06,0.69, -1.03, -7.94, 1.88, 1.66, 7.48, repro,
2011-01-07,1.35, 0.07, -0.55, 1.86, 1.66, 7.57, repro,
2011-01-08,1.03, 0.97, -3.57, 1.83, 1.63, 7.34, repro,
2011-01-09,0.73, 0.94, -0.90, 1.82, 1.60, 7.33, repro,
2011-01-10,0.55, 0.24, -2.78, 1.87, 1.70, 7.62, repro,
2011-01-11,1.18, -0.60, -0.17, 1.89, 1.72, 7.75, repro,
2011-01-12,1.92, 0.04, -9.07, 1.87, 1.64, 7.42, repro,
2011-01-13,1.39, 0.12, -9.66, 1.85, 1.64, 7.36, repro,
2011-01-14,1.37, -0.60, -3.50, 1.83, 1.64, 7.40, repro,
2011-01-15,1.52, -1.33, -3.90, 1.84, 1.64, 7.44, repro,
2011-01-16,2.02, -1.31, -1.40, 1.86, 1.65, 7.51, repro,
2011-01-17,1.75, -0.46, 4.48, 1.83, 1.60, 7.33, repro,
2011-01-18,0.79, -0.97, 0.67, 1.86, 1.63, 7.48, repro,
2011-01-19,2.16, 0.90, 3.88, 1.87, 1.68, 7.56, repro,
2011-01-20,0.96, -0.87, 0.18, 1.83, 1.64, 7.40, repro,
2011-01-21,1.36, -1.54, -1.11, 1.83, 1.63, 7.42, repro,
2011-01-22,1.52, -1.01, 4.37, 1.88, 1.69, 7.71, repro,
2011-01-23,1.29, -1.10, 3.60, 1.86, 1.67, 7.62, repro,
2011-01-24,2.18, -1.08, 0.91, 1.86, 1.65, 7.64, repro,
2011-01-25,2.13, -0.61, -2.72, 1.85, 1.66, 7.56, repro,
2011-01-26,1.26, -1.73, -0.96, 2.01, 1.80, 8.33, repro,
2011-01-27,0.30, -2.00, 0.86, 1.90, 1.79, 8.04, repro,
2011-01-28,1.77, 0.23, -4.40, 1.82, 1.60, 7.36, repro,
2011-01-29,1.06, 0.27, -3.81, 1.81, 1.58, 7.29, repro,
2011-01-30,2.54, -0.67, -4.10, 1.83, 1.60, 7.42, repro,
2011-01-31,0.82, -0.70, -9.13, 1.88, 1.71, 7.78, repro,
2011-02-01,2.30, -0.65, -8.17, 1.88, 1.70, 7.77, repro,
2011-02-02,1.71, -0.97, -10.65, 1.87, 1.67, 7.65, repro,
2011-02-03,2.22, -0.91, -17.51, 1.86, 1.66, 7.58, repro,
2011-02-04,0.42, -1.31, -5.30, 1.93, 1.75, 7.83, repro,
2011-02-05,1.05, -1.03, -0.58, 1.86, 1.64, 7.53, repro,
2011-02-06,0.10, -0.37, -3.76, 1.95, 1.86, 8.27, repro,
2011-02-07,1.23, -1.70, -3.55, 1.89, 1.70, 7.78, repro,
2011-02-08,1.24, -0.58, -1.85, 1.88, 1.66, 7.70, repro,
2011-02-09,2.93, -0.56, -4.36, 1.84, 1.59, 7.35, repro,
2011-02-10,1.87, -1.01, -5.93, 1.86, 1.66, 7.57, repro,
2011-02-11,2.07, -0.95, -3.26, 1.87, 1.66, 7.63, repro,
2011-02-12,2.40, -0.32, -5.06, 1.87, 1.66, 7.66, repro,
2011-02-13,2.91, -0.67, -1.30, 1.84, 1.68, 7.69, repro,
2011-02-14,2.78, -0.94, -5.32, 1.83, 1.62, 7.49, repro,
2011-02-15,1.03, -1.07, -6.07, 1.92, 1.79, 8.02, repro,
2011-02-16,0.36, -1.00, -5.23, 1.92, 1.79, 8.00, repro,
2011-02-17,1.58, -0.87, 2.35, 1.89, 1.74, 7.93, repro,
2011-02-18,1.41, -0.07, -7.40, 1.86, 1.66, 7.64, repro,
2011-02-19,-0.26, -0.66, -12.40, 1.82, 1.61, 7.38, repro,
2011-02-20,0.41, -0.44, 0.85, 1.81, 1.59, 7.29, repro,
2011-02-21,2.17, -0.26, 0.11, 1.83, 1.58, 7.34, repro,
2011-02-22,2.31, -0.50, -4.29, 1.84, 1.61, 7.42, repro,
2011-02-23,2.10, -0.55, -0.50, 1.89, 1.66, 7.56, repro,
2011-02-24,2.53, 0.96, -1.76, 1.81, 1.58, 7.30, repro,
2011-02-25,1.68, 0.14, -0.12, 1.80, 1.57, 7.24, repro,
2011-02-26,2.19, -0.89, 1.41, 1.82, 1.56, 7.25, repro,
2011-02-27,1.56, -0.02, -0.15, 1.82, 1.57, 7.26, repro,
2011-02-28,2.23, -0.90, -4.20, 1.82, 1.57, 7.28, repro,
2011-03-01,1.27, 0.45, -4.87, 1.81, 1.56, 7.27, repro,
2011-03-02,2.97, -0.65, -5.33, 1.81, 1.58, 7.33, repro,
2011-03-03,1.79, -2.21, -6.97, 1.81, 1.57, 7.28, repro,
2011-03-04,1.77, -0.93, -4.63, 1.83, 1.57, 7.30, repro,
2011-03-05,1.15, -0.95, -5.14, 1.82, 1.57, 7.25, repro,
2011-03-06,1.96, 0.34, -7.99, 1.83, 1.57, 7.31, repro,
2011-03-07,1.54, -0.58, 0.16, 1.81, 1.58, 7.28, repro,
2011-03-08,1.80, -1.46, -1.72, 1.81, 1.56, 7.27, repro,
2011-03-09,1.54, -1.32, -3.24, 1.81, 1.57, 7.30, repro,
2011-03-10,1.71, -1.27, -3.52, 1.83, 1.57, 7.33, repro,
2011-03-11,2.45, 0.13, -0.89, 1.83, 1.57, 7.33, repro,
2011-03-12,2.05, -0.62, -1.81, 1.85, 1.61, 7.41, repro,
2011-03-13,2.68, -1.61, -10.53, 1.87, 1.64, 7.42, repro,
2011-03-14,0.87, -0.46, -4.70, 1.89, 1.65, 7.52, repro,
2011-03-15,0.56, -1.62, -7.22, 2.01, 1.68, 8.04, repro,
2011-03-16,1.64, -1.12, -5.44, 1.93, 1.68, 7.60, repro,
2011-03-17,2.45, -1.19, -3.10, 1.97, 1.69, 7.73, repro,
2011-03-18,1.33, 0.54, -7.20, 2.04, 1.66, 7.95, repro,
2011-03-19,0.91, -1.06, -6.44, 1.96, 1.70, 7.71, repro,
2011-03-20,1.16, -2.17, -2.66, 1.87, 1.60, 7.43, repro,
2011-03-21,1.45, -0.08, -8.60, 1.90, 1.63, 7.54, repro,
2011-03-22,1.51, 0.16, -2.84, 1.92, 1.65, 7.58, repro,
2011-03-23,2.92, -0.25, -2.63, 1.91, 1.63, 7.56, repro,
2011-03-24,2.45, -1.21, 0.06, 1.93, 1.69, 7.62, repro,
2011-03-25,2.28, -0.54, 0.75, 1.94, 1.66, 7.61, repro,
2011-03-26,1.97, -1.36, -0.06, 1.93, 1.67, 7.64, repro,
2011-03-27,2.30, -1.96, -5.22, 1.84, 1.57, 7.35, repro,
2011-03-28,2.06, -1.47, -10.01, 1.84, 1.59, 7.32, repro,
2011-03-29,2.21, -1.55, -4.74, 1.88, 1.65, 7.48, repro,
2011-03-30,2.16, -1.33, -5.43, 1.90, 1.65, 7.58, repro,
2011-03-31,0.71, -2.02, -4.53, 1.98, 1.64, 7.77, repro,
2011-04-01,1.97, -1.54, 0.00, 1.88, 1.60, 7.43, repro,
2011-04-02,0.61, -0.74, -3.80, 1.93, 1.65, 7.61, repro,
2011-04-03,1.62, -0.69, -4.89, 1.90, 1.62, 7.53, repro,
2011-04-04,2.03, -1.59, -3.08, 1.92, 1.65, 7.70, repro,
2011-04-05,1.84, -1.32, 2.42, 1.95, 1.70, 7.85, repro,
2011-04-06,2.32, -0.85, -3.50, 1.87, 1.63, 7.57, repro,
2011-04-07,2.72, -1.04, 1.12, 1.85, 1.57, 7.38, repro,
2011-04-08,0.67, -2.26, -5.28, 1.91, 1.63, 7.61, repro,
2011-04-09,2.83, -0.68, -2.80, 1.91, 1.61, 7.54, repro,
2011-04-10,1.59, -1.52, 0.45, 1.93, 1.67, 7.66, repro,
2011-04-11,2.47, -0.95, -6.02, 1.94, 1.69, 7.75, repro,
2011-04-12,1.04, -0.54, -5.82, 1.88, 1.64, 7.57, repro,
2011-04-13,1.51, -1.10, -4.74, 1.83, 1.57, 7.31, repro,
2011-04-14,2.45, -0.27, -5.06, 1.83, 1.57, 7.32, repro,
2011-04-15,1.47, 0.27, -7.88, 1.83, 1.58, 7.34, repro,
2011-04-16,1.00, -0.03, -7.35, 1.85, 1.60, 7.39, repro,
2011-04-17,1.56, -0.49, -0.43, 1.82, 1.57, 7.27, repro,
2011-04-18,2.01, -1.71, -2.19, 1.82, 1.57, 7.29, repro,
2011-04-19,1.97, -0.62, 4.15, 1.87, 1.60, 7.41, repro,
2011-04-20,1.10, -0.93, -0.36, 1.84, 1.57, 7.37, repro,
2011-04-21,1.25, -2.60, -2.42, 1.87, 1.59, 7.60, repro,
2011-04-22,1.06, -1.59, 1.69, 1.82, 1.57, 7.32, repro,
2011-04-23,1.13, 0.55, 0.10, 1.82, 1.57, 7.30, repro,
2011-04-24,1.94, -1.41, 1.54, 1.83, 1.56, 7.29, repro,
2011-04-25,2.08, -1.26, 1.16, 1.84, 1.56, 7.33, repro,
2011-04-26,0.79, -1.08, 1.82, 1.83, 1.56, 7.32, repro,
2011-04-27,0.79, -0.03, 1.81, 1.81, 1.56, 7.27, repro,
2011-04-28,2.11, -0.91, -2.99, 1.82, 1.57, 7.33, repro,
2011-04-29,2.34, -0.48, -5.52, 1.82, 1.57, 7.33, repro,
2011-04-30,1.15, -0.56, -0.45, 1.85, 1.59, 7.44, repro,
2011-05-01,2.00, -2.05, -0.38, 1.83, 1.56, 7.31, repro,
2011-05-02,0.51, -1.60, -1.60, 1.81, 1.55, 7.24, repro,
2011-05-03,0.58, -1.81, -3.32, 1.83, 1.60, 7.35, repro,
2011-05-04,1.47, -0.43, -3.79, 1.84, 1.60, 7.41, repro,
2011-05-05,0.95, -0.14, -3.58, 1.86, 1.58, 7.40, repro,
2011-05-06,0.50, 0.19, -0.60, 1.86, 1.58, 7.41, repro,
2011-05-07,1.21, -0.68, 4.68, 1.85, 1.59, 7.42, repro,
2011-05-08,0.69, -0.08, 5.35, 1.83, 1.59, 7.37, repro,
2011-05-09,1.71, -1.29, 3.37, 1.83, 1.59, 7.37, repro,
2011-05-10,1.45, -0.70, 2.61, 1.83, 1.60, 7.40, repro,
2011-05-11,1.17, -0.81, 1.85, 1.84, 1.59, 7.40, repro,
2011-05-12,2.07, -0.23, -3.24, 1.82, 1.57, 7.34, repro,
2011-05-13,0.86, 0.52, -2.64, 1.83, 1.56, 7.31, repro,
2011-05-14,0.24, -1.17, 0.12, 1.85, 1.64, 7.54, repro,
2011-05-15,0.06, -2.00, 0.14, 1.84, 1.59, 7.37, repro,
2011-05-16,0.95, -0.71, -3.17, 1.84, 1.60, 7.40, repro,
2011-05-17,0.03, -1.61, -0.17, 1.84, 1.60, 7.44, repro,
2011-05-18,0.66, 0.09, 0.83, 1.87, 1.66, 7.65, repro,
2011-05-19,1.79, -1.00, 0.72, 1.93, 1.71, 7.73, repro,
2011-05-20,0.63, -0.59, 0.60, 1.85, 1.59, 7.38, repro,
2011-05-21,1.23, 0.74, -2.38, 1.85, 1.64, 7.54, repro,
2011-05-22,0.99, -0.68, 1.27, 1.84, 1.60, 7.41, repro,
2011-05-23,1.87, -1.01, 0.86, 1.85, 1.61, 7.46, repro,
2011-05-24,0.55, -0.82, -2.37, 1.89, 1.65, 7.66, repro,
2011-05-25,1.23, -0.12, 0.12, 1.91, 1.70, 7.67, repro,
2011-05-26,1.32, -1.03, -1.19, 1.86, 1.64, 7.53, repro,
2011-05-27,2.36, -0.61, -2.63, 1.86, 1.64, 7.60, repro,
2011-05-28,2.41, -0.55, 0.43, 1.86, 1.64, 7.56, repro,
2011-05-29,1.96, -1.64, 5.26, 1.94, 1.72, 7.79, repro,
2011-05-30,1.29, -1.29, 2.23, 1.88, 1.65, 7.64, repro,
2011-05-31,1.21, -1.81, 5.03, 1.85, 1.59, 7.37, repro,
2011-06-01,1.77, -0.43, -1.88, 1.86, 1.63, 7.53, repro,
2011-06-02,2.02, -0.55, 1.68, 1.86, 1.63, 7.54, repro,
2011-06-03,1.80, -0.93, 4.39, 1.85, 1.59, 7.43, repro,
2011-06-04,1.57, -1.65, -3.24, 1.90, 1.64, 7.61, repro,
2011-06-05,0.61, -1.50, -7.05, 1.84, 1.58, 7.36, repro,
2011-06-06,0.52, -3.09, 3.54, 1.84, 1.59, 7.37, repro,
2011-06-07,2.32, -1.31, 4.17, 1.83, 1.58, 7.38, repro,
2011-06-08,1.92, -1.09, -0.45, 1.84, 1.58, 7.38, repro,
2011-06-09,1.37, -0.16, 2.95, 1.85, 1.60, 7.45, repro,
2011-06-10,1.97, -1.55, 3.03, 1.85, 1.60, 7.45, repro,
2011-06-11,1.62, -1.14, 4.38, 1.84, 1.59, 7.39, repro,
2011-06-12,1.74, -1.56, 7.83, 1.83, 1.59, 7.37, repro,
2011-06-13,2.86, -2.18, 6.54, 1.85, 1.59, 7.41, repro,
2011-06-14,1.97, -1.29, 6.05, 1.85, 1.59, 7.41, repro,
2011-06-15,2.17, -1.01, 1.09, 1.86, 1.61, 7.49, repro,
2011-06-16,2.03, -1.31, 5.37, 1.85, 1.60, 7.42, repro,
2011-06-17,2.71, -1.59, 7.47, 1.84, 1.60, 7.43, repro,
2011-06-18,2.67, -1.62, 1.12, 1.84, 1.60, 7.43, repro,
2011-06-19,1.69, -1.65, 1.97, 1.85, 1.60, 7.44, repro,
2011-06-20,1.77, -2.12, -0.95, 1.85, 1.60, 7.40, repro,
2011-06-21,1.79, -1.64, 4.99, 1.86, 1.60, 7.43, repro,
2011-06-22,1.77, -1.13, 5.24, 1.90, 1.67, 7.66, repro,
2011-06-23,2.59, -2.05, 3.35, 1.85, 1.59, 7.39, repro,
2011-06-24,3.01, -1.66, 6.84, 1.84, 1.60, 7.39, repro,
2011-06-25,1.61, -2.21, 4.20, 1.85, 1.60, 7.41, repro,
2011-06-26,2.13, -2.51, 6.99, 1.85, 1.61, 7.46, repro,
2011-06-27,3.31, -3.42, 0.43, 1.86, 1.60, 7.46, repro,
2011-06-28,2.13, -3.08, 8.44, 1.86, 1.59, 7.42, repro,
2011-06-29,0.86, -2.77, 4.18, 1.86, 1.59, 7.41, repro,
2011-06-30,2.92, -2.58, 1.37, 1.85, 1.59, 7.41, repro,
2011-07-01,2.67, -2.09, 1.80, 1.85, 1.60, 7.44, repro,
2011-07-02,0.96, -2.57, 3.96, 1.85, 1.60, 7.42, repro,
2011-07-03,1.27, -3.29, 6.89, 1.86, 1.60, 7.46, repro,
2011-07-04,-0.00, -4.12, 14.35, 1.87, 1.63, 7.54, repro,
2011-07-05,2.07, -2.79, -0.97, 1.99, 1.76, 8.10, repro,
2011-07-06,1.62, -2.03, 6.06, 1.93, 1.64, 7.77, repro,
2011-07-07,-1.72, -2.75, 1.05, 2.00, 1.77, 8.46, repro,
2011-07-08,4.91, -1.48, 1.30, 1.92, 1.66, 7.80, repro,
2011-07-09,2.14, -3.43, 10.31, 1.90, 1.60, 7.62, repro,
2011-07-10,0.27, -1.48, 6.08, 1.91, 1.63, 7.77, repro,
2011-07-11,3.13, -0.78, -2.74, 1.89, 1.61, 7.67, repro,
2011-07-12,3.16, -2.00, -4.57, 1.88, 1.61, 7.62, repro,
2011-07-13,1.21, -1.87, -1.98, 1.92, 1.65, 7.75, repro,
2011-07-14,2.00, -1.80, -1.30, 1.90, 1.61, 7.65, repro,
2011-07-15,2.63, -2.55, -0.78, 1.89, 1.61, 7.64, repro,
2011-07-16,1.79, -4.42, 2.87, 1.88, 1.60, 7.59, repro,
2011-07-17,2.59, -2.33, -1.36, 1.89, 1.61, 7.63, repro,
2011-07-18,0.83, -0.03, -4.98, 1.89, 1.61, 7.62, repro,
2011-07-19,2.65, -0.65, -0.47, 1.90, 1.61, 7.63, repro,
2011-07-20,2.41, -0.87, 3.74, 1.89, 1.63, 7.62, repro,
2011-07-21,1.85, -1.73, 2.81, 1.88, 1.61, 7.60, repro,
2011-07-22,0.70, -1.66, -3.17, 1.91, 1.64, 7.75, repro,
2011-07-23,1.92, -1.92, -1.50, 1.89, 1.60, 7.58, repro,
2011-07-24,3.03, -2.02, -5.87, 1.90, 1.62, 7.64, repro,
2011-07-25,1.91, -1.13, 1.17, 1.88, 1.61, 7.58, repro,
2011-07-26,2.11, -1.38, 2.51, 1.91, 1.66, 7.75, repro,
2011-07-27,1.96, -2.13, 0.66, 1.90, 1.60, 7.62, repro,
2011-07-28,1.65, -2.42, 4.12, 1.90, 1.63, 7.69, repro,
2011-07-29,1.41, -1.22, -4.35, 1.90, 1.61, 7.66, repro,
2011-07-30,3.01, -2.63, 2.12, 1.90, 1.64, 7.72, repro,
2011-07-31,1.56, -2.93, 9.40, 1.89, 1.62, 7.66, repro,
2011-08-01,1.32, -1.13, -0.82, 1.88, 1.61, 7.62, repro,
2011-08-02,1.37, -3.21, -0.70, 1.95, 1.63, 7.98, repro,
2011-08-03,1.40, -0.80, -1.54, 1.96, 1.72, 8.04, repro,
2011-08-04,1.82, -1.38, -0.90, 1.89, 1.61, 7.62, repro,
2011-08-05,1.08, -1.92, 8.62, 1.88, 1.60, 7.57, repro,
2011-08-06,1.57, -1.78, 4.00, 1.91, 1.64, 7.75, repro,
2011-08-07,1.25, -2.12, 4.79, 1.90, 1.62, 7.69, repro,
2011-08-08,2.37, -2.06, -2.15, 1.90, 1.62, 7.68, repro,
2011-08-09,2.81, -0.66, -0.03, 1.89, 1.63, 7.71, repro,
2011-08-10,1.98, -1.38, 2.79, 1.90, 1.63, 7.64, repro,
2011-08-11,1.72, -1.68, 4.21, 2.05, 1.69, 8.14, repro,
2011-08-12,1.60, -3.15, 1.66, 2.01, 1.70, 8.11, repro,
2011-08-13,0.03, -2.01, -1.71, 1.91, 1.64, 7.69, repro,
2011-08-14,0.02, -1.45, 0.35, 1.92, 1.64, 7.69, repro,
2011-08-15,2.30, -1.93, 2.28, 1.90, 1.63, 7.65, repro,
2011-08-16,1.07, -1.97, 0.07, 1.93, 1.64, 7.76, repro,
2011-08-17,1.66, 0.04, -3.38, 1.90, 1.63, 7.66, repro,
2011-08-18,1.10, -2.12, -10.39, 1.89, 1.61, 7.60, repro,
2011-08-19,1.08, -2.77, -1.88, 1.89, 1.63, 7.65, repro,
2011-08-20,1.21, -3.14, 5.66, 1.88, 1.61, 7.60, repro,
2011-08-21,0.78, -3.09, 0.89, 1.93, 1.65, 7.79, repro,
2011-08-22,2.84, -2.41, 3.78, 1.91, 1.64, 7.74, repro,
2011-08-23,1.00, -2.64, 2.58, 1.97, 1.73, 7.94, repro,
2011-08-24,3.06, -2.55, 3.92, 1.88, 1.63, 7.65, repro,
2011-08-25,0.69, -2.58, 3.71, 1.89, 1.66, 7.74, repro,
2011-08-26,1.77, -3.76, 7.55, 2.02, 1.73, 8.19, repro,
2011-08-27,-1.51, -4.09, 5.22, 1.99, 1.73, 7.99, repro,
2011-08-28,0.93, -3.96, 13.07, 1.98, 1.74, 8.14, repro,
2011-08-29,1.29, -2.35, 3.37, 1.92, 1.67, 7.83, repro,
2011-08-30,1.93, -3.47, 6.35, 1.97, 1.68, 8.01, repro,
2011-08-31,0.59, -2.81, 2.70, 1.99, 1.74, 8.23, repro,
2011-09-01,2.49, -1.43, 3.23, 1.98, 1.68, 8.22, repro,
2011-09-02,0.90, -1.05, 5.50, 1.98, 1.66, 8.17, repro,
2011-09-03,1.67, -3.11, 0.48, 1.90, 1.64, 7.73, repro,
2011-09-04,1.95, -2.44, 7.46, 1.89, 1.65, 7.72, repro,
2011-09-05,0.70, -3.24, 2.94, 1.93, 1.70, 7.83, repro,
2011-09-06,0.36, -2.63, -0.44, 1.97, 1.67, 7.91, repro,
2011-09-07,-0.24, -1.50, -2.57, 2.19, 1.85, 8.78, repro,
2011-09-08,2.09, -2.89, 3.98, 2.03, 1.79, 8.47, repro,
2011-09-09,1.33, -1.75, -1.00, 1.90, 1.66, 7.75, repro,
2011-09-10,1.66, -2.88, 3.03, 1.91, 1.67, 7.77, repro,
2011-09-11,2.09, -2.17, -4.60, 1.99, 1.79, 8.14, repro,
2011-09-12,0.82, -2.84, -1.81, 1.96, 1.72, 7.96, repro,
2011-09-13,-1.98, -2.58, 2.73, 1.92, 1.66, 7.80, repro,
2011-09-14,0.16, -3.24, -0.24, 1.90, 1.65, 7.69, repro,
2011-09-15,1.89, -2.65, 10.76, 1.96, 1.66, 7.99, repro,
2011-09-16,2.37, -3.66, 6.43, 1.93, 1.69, 7.76, repro,
2011-09-17,1.29, -3.63, 6.56, 1.92, 1.70, 7.80, repro,
2011-09-18,2.29, -3.69, -3.47, 1.93, 1.67, 7.77, repro,
2011-09-19,1.78, -5.56, -2.51, 1.95, 1.71, 7.90, repro,
2011-09-20,0.54, -4.08, 3.65, 2.08, 1.77, 8.55, repro,
2011-09-21,1.67, -3.32, 5.39, 1.92, 1.68, 7.71, repro,
2011-09-22,1.96, -4.82, 0.26, 1.92, 1.68, 7.76, repro,
2011-09-23,0.72, -2.38, 5.58, 2.03, 1.86, 8.17, repro,
2011-09-24,-1.49, -5.43, 5.30, 1.89, 1.64, 7.70, repro,
2011-09-25,2.03, -2.91, 1.91, 1.89, 1.64, 7.70, repro,
2011-09-26,1.41, -0.59, 4.70, 1.97, 1.71, 7.95, repro,
2011-09-27,-1.07, -4.45, 9.86, 1.92, 1.70, 7.81, repro,
2011-09-28,0.94, -4.25, 2.75, 1.97, 1.71, 7.84, repro,
2011-09-29,0.59, -3.27, 0.69, 1.96, 1.71, 7.82, repro,
2011-09-30,2.15, -2.55, 0.52, 2.01, 1.75, 7.96, repro,
2011-10-01,1.54, -2.00, -2.86, 2.03, 1.77, 8.08, repro,
2011-10-02,-1.48, -3.85, 3.22, 2.08, 1.79, 8.26, repro,
2011-10-03,1.39, -4.96, 3.57, 2.01, 1.76, 7.96, repro,
2011-10-04,0.20, -2.60, 0.53, 1.96, 1.69, 7.75, repro,
2011-10-05,0.20, -3.51, 3.05, 1.92, 1.65, 7.66, repro,
2011-10-06,0.96, -4.82, 2.36, 1.97, 1.71, 7.81, repro,
2011-10-07,3.10, -4.75, 0.67, 1.94, 1.68, 7.76, repro,
2011-10-08,1.60, -3.82, 1.37, 1.96, 1.71, 7.81, repro,
2011-10-09,1.65, -4.36, 3.58, 1.96, 1.70, 7.82, repro,
2011-10-10,1.94, -3.79, 2.49, 1.92, 1.65, 7.70, repro,
2011-10-11,1.80, -2.57, 4.38, 1.95, 1.70, 7.82, repro,
2011-10-12,1.16, -3.86, 0.68, 1.97, 1.72, 7.93, repro,
2011-10-13,1.40, -3.44, -0.22, 1.97, 1.72, 7.86, repro,
2011-10-14,2.39, -3.06, 2.99, 1.94, 1.73, 7.81, repro,
2011-10-15,3.04, -1.41, -0.68, 1.92, 1.65, 7.66, repro,
2011-10-16,2.79, -1.52, -0.47, 1.92, 1.64, 7.70, repro,
2011-10-17,2.02, -1.34, -1.84, 1.90, 1.62, 7.65, repro,
2011-10-18,0.87, -2.59, 0.20, 1.93, 1.68, 7.78, repro,
2011-10-19,1.07, -3.03, 4.75, 1.97, 1.71, 7.82, repro,
2011-10-20,-0.03, -3.03, 6.06, 1.96, 1.69, 7.78, repro,
2011-10-21,0.95, -3.96, -2.85, 1.89, 1.60, 7.54, repro,
2011-10-22,-1.57, -4.88, -3.59, 1.89, 1.60, 7.56, repro,
2011-10-23,-0.31, -3.67, 1.46, 1.89, 1.62, 7.59, repro,
2011-10-24,1.62, -3.03, -2.15, 1.89, 1.62, 7.58, repro,
2011-10-25,-0.01, -2.47, -8.15, 1.89, 1.61, 7.57, repro,
2011-10-26,2.30, -2.86, -1.27, 1.87, 1.59, 7.46, repro,
2011-10-27,1.42, -2.94, 1.25, 1.88, 1.60, 7.51, repro,
2011-10-28,1.83, -2.13, 1.55, 1.93, 1.65, 7.66, repro,
2011-10-29,1.76, -2.00, 1.22, 1.89, 1.61, 7.52, repro,
2011-10-30,1.13, -3.22, -0.43, 1.89, 1.60, 7.52, repro,
2011-10-31,1.58, -2.31, 2.67, 1.89, 1.59, 7.47, repro,